TimeEST,TemperatureF,Dew PointF,Humidity,Sea Level PressureIn,VisibilityMPH,Wind Direction,Wind SpeedMPH,Gust SpeedMPH,PrecipitationIn,Events,Conditions,WindDirDegrees,DateUTC
12:15 AM,23.0,6.8,50,29.96,10.0,WNW,13.8,26.5,N/A,,Clear,300,2014-02-25 05:15:00
12:35 AM,23.0,6.8,50,29.96,10.0,West,13.8,25.3,N/A,,Clear,280,2014-02-25 05:35:00
12:55 AM,23.0,6.8,50,29.97,10.0,WNW,16.1,21.9,N/A,,Clear,290,2014-02-25 05:55:00
1:15 AM,23.0,6.8,50,29.97,10.0,WNW,17.3,-,N/A,,Clear,290,2014-02-25 06:15:00
1:35 AM,23.0,6.8,50,29.97,10.0,WNW,10.4,17.3,N/A,,Clear,290,2014-02-25 06:35:00
1:55 AM,23.0,6.8,50,29.97,10.0,West,11.5,17.3,N/A,,Clear,280,2014-02-25 06:55:00
2:15 AM,23.0,6.8,50,29.97,10.0,West,13.8,-,N/A,,Clear,280,2014-02-25 07:15:00
2:35 AM,23.0,6.8,50,29.97,10.0,West,10.4,16.1,N/A,,Clear,280,2014-02-25 07:35:00
2:55 AM,23.0,6.8,50,29.97,10.0,West,9.2,-,N/A,,Clear,280,2014-02-25 07:55:00
3:15 AM,23.0,6.8,50,29.97,10.0,West,9.2,16.1,N/A,,Clear,280,2014-02-25 08:15:00
3:35 AM,21.2,6.8,54,29.97,10.0,West,11.5,17.3,N/A,,Clear,280,2014-02-25 08:35:00
3:55 AM,21.2,6.8,54,29.97,10.0,West,11.5,-,N/A,,Partly Cloudy,280,2014-02-25 08:55:00
4:15 AM,21.2,6.8,54,29.97,10.0,West,9.2,21.9,N/A,,Partly Cloudy,280,2014-02-25 09:15:00
4:35 AM,21.2,6.8,54,29.98,10.0,West,12.7,-,N/A,,Partly Cloudy,270,2014-02-25 09:35:00
4:55 AM,21.2,6.8,54,29.98,10.0,West,15.0,-,N/A,,Partly Cloudy,280,2014-02-25 09:55:00
5:15 AM,21.2,6.8,54,29.98,10.0,West,15.0,-,N/A,,Clear,280,2014-02-25 10:15:00
5:35 AM,21.2,6.8,54,29.98,10.0,West,10.4,-,N/A,,Clear,280,2014-02-25 10:35:00
5:55 AM,21.2,6.8,54,29.98,10.0,West,10.4,-,N/A,,Clear,280,2014-02-25 10:55:00
6:15 AM,21.2,6.8,54,29.98,10.0,West,11.5,-,N/A,,Clear,280,2014-02-25 11:15:00
6:35 AM,21.2,6.8,54,29.98,10.0,West,12.7,-,N/A,,Clear,270,2014-02-25 11:35:00
6:55 AM,21.2,6.8,54,29.99,10.0,West,15.0,-,N/A,,Clear,260,2014-02-25 11:55:00
7:15 AM,23.0,5.0,46,29.99,10.0,West,16.1,-,N/A,,Clear,280,2014-02-25 12:15:00
7:35 AM,23.0,6.8,50,30.00,10.0,West,15.0,-,N/A,,Clear,260,2014-02-25 12:35:00
7:55 AM,24.8,6.8,46,29.99,10.0,West,16.1,21.9,N/A,,Clear,260,2014-02-25 12:55:00
8:15 AM,24.8,6.8,46,30.00,10.0,West,13.8,19.6,N/A,,Clear,280,2014-02-25 13:15:00
8:35 AM,24.8,6.8,46,30.00,10.0,West,13.8,-,N/A,,Clear,270,2014-02-25 13:35:00
8:55 AM,24.8,6.8,46,29.99,10.0,WNW,16.1,-,N/A,,Clear,290,2014-02-25 13:55:00
9:15 AM,24.8,6.8,46,29.98,10.0,West,12.7,19.6,N/A,,Clear,280,2014-02-25 14:15:00
9:35 AM,26.6,3.2,37,29.99,10.0,WNW,12.7,20.7,N/A,,Clear,290,2014-02-25 14:35:00
9:55 AM,26.6,5.0,40,29.99,10.0,West,12.7,18.4,N/A,,Clear,270,2014-02-25 14:55:00
10:15 AM,26.6,6.8,43,29.98,10.0,WSW,13.8,20.7,N/A,,Clear,250,2014-02-25 15:15:00
10:35 AM,24.8,6.8,46,29.97,10.0,West,17.3,-,N/A,,Clear,260,2014-02-25 15:35:00
10:55 AM,28.4,6.8,40,29.96,10.0,WSW,15.0,-,N/A,,Clear,250,2014-02-25 15:55:00
11:15 AM,26.6,5.0,40,29.96,10.0,West,15.0,24.2,N/A,,Clear,270,2014-02-25 16:15:00
11:35 AM,26.6,5.0,40,29.95,10.0,West,18.4,25.3,N/A,,Partly Cloudy,280,2014-02-25 16:35:00
11:55 AM,26.6,5.0,40,29.94,10.0,West,21.9,29.9,N/A,,Clear,260,2014-02-25 16:55:00
12:15 PM,28.4,6.8,40,29.93,10.0,West,21.9,33.4,N/A,,Clear,270,2014-02-25 17:15:00
12:35 PM,28.4,6.8,40,29.92,10.0,West,23.0,29.9,N/A,,Clear,260,2014-02-25 17:35:00
12:55 PM,28.4,6.8,40,29.91,10.0,West,18.4,26.5,N/A,,Scattered Clouds,270,2014-02-25 17:55:00
1:15 PM,30.2,6.8,37,29.91,10.0,West,23.0,31.1,N/A,,Mostly Cloudy,270,2014-02-25 18:15:00
1:35 PM,30.2,6.8,37,29.89,10.0,West,24.2,33.4,N/A,,Overcast,270,2014-02-25 18:35:00
1:55 PM,28.4,5.0,37,29.89,10.0,West,20.7,28.8,N/A,,Overcast,270,2014-02-25 18:55:00
2:15 PM,28.4,5.0,37,29.89,10.0,West,18.4,29.9,N/A,,Overcast,280,2014-02-25 19:15:00
2:35 PM,28.4,5.0,37,29.89,10.0,West,20.7,29.9,N/A,,Overcast,280,2014-02-25 19:35:00
2:55 PM,28.4,5.0,37,29.88,10.0,West,17.3,26.5,N/A,,Mostly Cloudy,280,2014-02-25 19:55:00
3:15 PM,28.4,5.0,37,29.88,10.0,West,19.6,27.6,N/A,,Overcast,270,2014-02-25 20:15:00
3:35 PM,28.4,5.0,37,29.87,10.0,West,13.8,-,N/A,,Overcast,270,2014-02-25 20:35:00
3:55 PM,28.4,5.0,37,29.87,10.0,West,13.8,20.7,N/A,,Overcast,280,2014-02-25 20:55:00
4:15 PM,28.4,6.8,40,29.86,10.0,West,13.8,23.0,N/A,,Overcast,280,2014-02-25 21:15:00
4:35 PM,28.4,6.8,40,29.87,10.0,West,12.7,19.6,N/A,,Overcast,280,2014-02-25 21:35:00
4:55 PM,28.4,6.8,40,29.87,10.0,NW,8.1,16.1,N/A,,Overcast,320,2014-02-25 21:55:00
5:15 PM,26.6,6.8,43,29.88,10.0,NW,6.9,-,N/A,,Overcast,320,2014-02-25 22:15:00
5:35 PM,26.6,6.8,43,29.88,10.0,NW,8.1,-,N/A,,Mostly Cloudy,310,2014-02-25 22:35:00
5:55 PM,24.8,6.8,46,29.89,10.0,WNW,6.9,-,N/A,,Partly Cloudy,300,2014-02-25 22:55:00
6:15 PM,24.8,8.6,50,29.90,10.0,WNW,6.9,-,N/A,,Scattered Clouds,300,2014-02-25 23:15:00
6:35 PM,24.8,8.6,50,29.91,10.0,NW,4.6,-,N/A,,Scattered Clouds,320,2014-02-25 23:35:00
6:55 PM,24.8,8.6,50,29.91,10.0,WNW,5.8,-,N/A,,Scattered Clouds,300,2014-02-25 23:55:00
7:15 PM,24.8,8.6,50,29.92,10.0,NW,6.9,-,N/A,,Mostly Cloudy,310,2014-02-26 00:15:00
7:35 PM,23.0,8.6,54,29.92,10.0,NW,4.6,-,N/A,,Mostly Cloudy,320,2014-02-26 00:35:00
7:55 PM,23.0,8.6,54,29.92,10.0,NW,4.6,-,N/A,,Mostly Cloudy,320,2014-02-26 00:55:00
8:15 PM,21.2,8.6,58,29.93,10.0,NW,4.6,-,N/A,,Partly Cloudy,310,2014-02-26 01:15:00
8:35 PM,23.0,8.6,54,29.93,10.0,NW,4.6,-,N/A,,Clear,320,2014-02-26 01:35:00
8:55 PM,21.2,8.6,58,29.94,10.0,Calm,Calm,-,N/A,,Clear,0,2014-02-26 01:55:00
9:15 PM,21.2,8.6,58,29.94,10.0,Calm,Calm,-,N/A,,Clear,0,2014-02-26 02:15:00
9:35 PM,21.2,10.4,63,29.94,10.0,NW,4.6,-,N/A,,Clear,310,2014-02-26 02:35:00
9:55 PM,19.4,10.4,68,29.95,10.0,Calm,Calm,-,N/A,,Clear,0,2014-02-26 02:55:00
10:15 PM,19.4,10.4,68,29.95,10.0,Calm,Calm,-,N/A,,Clear,0,2014-02-26 03:15:00
10:35 PM,17.6,10.4,73,29.95,10.0,NW,4.6,-,N/A,,Clear,310,2014-02-26 03:35:00
10:55 PM,15.8,10.4,79,29.94,10.0,NW,4.6,-,N/A,,Clear,310,2014-02-26 03:55:00
11:15 PM,17.6,10.4,73,29.95,10.0,West,10.4,-,N/A,,Clear,280,2014-02-26 04:15:00
11:35 PM,21.2,8.6,58,29.95,10.0,WNW,8.1,-,N/A,,Clear,300,2014-02-26 04:35:00
11:55 PM,21.2,8.6,58,29.95,10.0,WNW,9.2,15.0,N/A,,Clear,300,2014-02-26 04:55:00